Showing default

DOVE 3, 39429

Orbit data source: Space-Track

DOVE 3, 39429 is a payload satellite owned by Planet Labs (US) in SSO that was launched on Thu, 21 Nov 2013 UTC via a DNEPR launch vehicle from the Orenburg, Russia (OREN). Payload-class satellites include a variety of spacecraft equipped with specific instruments for various scientific and technological missions. These include communications satellites like Starlink; space stations such as the ISS; scientific satellites like the Hubble; Earth observation satellites from companies like Planet Labs, Umbra, and HawkEye 360; GPS; miniature CubeSats for education and research; and military/defense satellites.

Loading next visibility...
Identifier
39429, 2013-066P
Orbit
SSO
Country
Flag of USUS
Related business
Manufacturer
Planet Labs
Mission
Non-operational Commercial Imaging
Bus & Motor
CUBESAT 3U, Unknown motor
Mass
5.2 kg wet, 5.2 kg dry
Launch date (UTC)
2013-11-21 (12 years ago)
Launch vehicle
DNEPR
Launch site
Orenburg, Russia (OREN)
Object type
Payload
Rocket body
Debris
Shape & HBR
Box, 1.0 m
Radar Cross Section
0.092 m², Small (<0.1 m²)

Expand to show TLE details & history
Last TLE update: 6 hours ago

TLE from 6 hours ago
0 DOVE 3
1 39429U 13066P   26037.85302072  .00004315  00000-0  57469-3 0  9995
2 39429  97.6797 264.2929 0116693  87.3905 274.0657 14.75461517651785
Epoch: 2026-02-06T20:28Z
TLE epoch observation values (Epoch: 2026-02-06T20:28:20.990Z)
Latitude
0.00001°
Longitude
-179.7795°
Altitude
641.851 km
Speed
7.54 km/s
True Right ascension
17h 37m 10s
True Declination
0° 00' 00"
Sunlit
Object was in daylight at epoch
Visualization orbit readout
Latitude
Unknown
Longitude
Unknown
Altitude
Unknown
Speed
Unknown
Apparent Right ascension
Unknown
Apparent Declination
Unknown
Sunlit
N/A
Visualization observer readout
Local Sidereal Time
04:29:08
Azimuth
Unknown
Elevation
Unknown
Doppler factor
Unknown
Orbital elements
Apogee altitude
722.628 km
Perigee altitude
558.818 km
Semi-major axis
7,018.86 km
Eccentricity
0.01167
Inclination
97.6797°
RAAN
264.2929°
Arg. of periapsis
87.3905°
True anomaly
272.7306°
Mean anomaly
274.0657°
Eccentric anomaly
273.39827°
Mean motion
3.69099 °/min
Orbital period
97.53 mins
BSTAR
0.00057469
Loading maneuver chart data...
Computing Atmospheric mass density...
Loading historical data...
Loading historical data...
Loading historical data...
Loading historical data...
Loading historical data...
Loading historical data...
Loading historical data...

Documentation

Showing up to 5 results
|